Regional Weather Roundup
Issued by NWS Charleston, SC

Current Version | Previous Version | Graphics & Text | Print | Product List | Glossary On
Versions: 1 2 3 4 5 6 7 8 9 10 11 12 13 14 15 16 17 18 19 20 21 22 23 24 25 26 27 28 29 30 31 32 33 34 35 36 37 38 39 40 41 42 43 44 45 46 47 48
000
ASUS42 KCHS 211710
RWRCHS

REGIONAL WEATHER ROUNDUP
NATIONAL WEATHER SERVICE CHARLESTON SC
1200 PM EST TUE FEB 21 2017

NOTE: "FAIR" INDICATES FEW OR NO CLOUDS BELOW 12,000 FEET WITH NO
SIGNIFICANT WEATHER AND/OR OBSTRUCTIONS TO VISIBILITY.

NOT ALL STATIONS ARE QUALITY CONTROLLED. USE DATA WITH CAUTION...
ESPECIALLY DEWPOINT OBSERVATIONS.

SCZ027-030-031-034>040-042>050-211800-
...SOUTHEAST SOUTH CAROLINA...

CITY           SKY/WX    TMP DP  RH WIND       PRES   REMARKS
N CHARLESTON   CLOUDY    70  56  61 E12G24    30.15
WATERFRONT PRK   N/A     66  60  81 E12       30.15
MOUNT PLEASANT FAIR      66  57  72 E6G18     30.15F
JOHNS ISLAND   FAIR      68  59  73 E14       30.15F
PINOPOLIS        N/A     66  55  68 E7        30.08
MONCKS CORNER  FAIR      68  52  56 SE8       30.16F
SUMMERVILLE    PTSUNNY   68  54  60 SE10      30.16F
BEAUFORT MCAS  CLOUDY    69  61  75 SE14G20   30.13
BEAUFORT ARPT  PTSUNNY   70  59  68 E9G16     30.14F
HILTON HEAD IS PTSUNNY   70  64  83 E5        30.14
WALTERBORO     CLOUDY    68  55  64 SE10      30.15F
ALLENDALE      PTSUNNY   68  55  64 E9        30.13F

...SOUTHERN MIDLANDS AND PEE DEE...

CITY           SKY/WX    TMP DP  RH WIND       PRES   REMARKS
GEORGETOWN     FAIR      64  52  63 E8        30.19F
KINGSTREE      PTSUNNY   64  52  63 E12       30.18F
ORANGEBURG     PTSUNNY   66  53  63 VRB6      30.15
BARNWELL       FAIR      70  55  60 SE10      30.14F
AIKEN          PTSUNNY   64  50  59 SE9       30.17F
MANNING        CLOUDY    64  36  34 MISG      30.16F
COLUMBIA       PTSUNNY   68  49  50 E10       30.15
SUMTER         PTSUNNY   67  49  52 SE8       30.15
FLORENCE       MOSUNNY   67  48  50 E14G20    30.19
MYRTLE BEACH   SUNNY     64  54  68 E15       30.21
N MYRTLE BEACH CLOUDY    65  51  60 E10       30.20

$$

GAZ063-065-086>088-099>101-113>116-118-119-134>141-150-211800-
...SOUTHEAST GEORGIA...

CITY           SKY/WX    TMP DP  RH WIND       PRES   REMARKS
SAVANNAH ARPT  CLOUDY    72  59  63 E13       30.13
HUNTER AAF     PTSUNNY   72  64  77 E12       30.10
FORT STEWART   CLOUDY    72  60  65 E3        30.10
STATESBORO     CLOUDY    71  60  69 SE7       30.12F
SYLVANIA       CLOUDY   N/A N/A N/A SE6       30.14F
CLAXTON        FAIR     N/A N/A N/A E5        30.12F

...CSRA...CENTRAL AND FAR SOUTHEAST GEORGIA...

CITY           SKY/WX    TMP DP  RH WIND       PRES   REMARKS
THOMSON        MOSUNNY   69  59  69 SE8       30.18F
AUGUSTA-BUSH   PTSUNNY   70  53  54 SE12      30.13
AUGUSTA-DANIEL CLOUDY    68  51  54 SE9       30.14
SWAINSBORO     FAIR      70  59  68 SE8       30.12F
VIDALIA        CLOUDY    72  63  73 SE7       30.11F
EASTMAN        PTSUNNY   72  51  47 SE8       30.13F
HAZLEHURST     FAIR      72  63  74 S10       30.10S
ALMA           PTSUNNY   70  61  73 SE7       30.10
WAYCROSS       CLOUDY    75  65  71 SE10      30.10F
JESUP          PTSUNNY   75  59  57 S8        30.11F
BAXLEY         FAIR      72  64  78 SE8       30.10F
BRUNSWICK      CLOUDY    73  63  68 E9        30.12F
SAINT SIMONS   CLOUDY    70  62  76 E8        30.11

$$

SCZ027-028-034-036>038-045-046-048>050-GAZ119-141-211800-
...LAKE AND SUPPLEMENTAL COASTAL OBSERVATIONS...

STATION/POSITION TIME  TEMP    WIND        PRES    WAVE   SWELL
                       AIR SEA DIR/SP/G            HT/PER HT/PER/DIR
                 (UTC) (F)     (DEG/KT/KT) (MB)    (FT/S) (FT/S/D)
WINYAH BAY       1545   59      70/ 12     1022.0
LAKE MURRAY      1620   62     100/  6/  9 1021.3
ACE BASIN NERRS  NOT AVBL
FORT PULASKI     1642   63 60   90/  8/ 10 1020.5F
SAPELO ISLAND    1600   70      90/  7     1020.0

$$

ANZ835-935-AMZ111-154-330-350-352-354-370-450-454-472-211800-
...C-MAN AND BUOY OBSERVATIONS...

STATION/POSITION TIME  TEMP    WIND        PRES    WAVE   SWELL
                       AIR SEA DIR/SP/G            HT/PER HT/PER/DIR
                 (UTC) (F)     (DEG/KT/KT) (MB)    (FT/S) (FT/S/D)
BUOY 41004       1550   69 66   90/ 16/ 17 1021.4    4/ 6   2/130/15
BUOY 41008       1550   64 62   50/  6/  8 1020.1    1/ 4   2/ 60/ 4
FOLLY BEACH CMAN NOT AVBL
CAPERS NEARSHORE 1608   60 59   70/ 14/ 17 1021.6
FRIPP NEARSHORE  1608   63 61   80/ 12/ 14 1020.4


STATION/POSITION TIME  TEMP    WIND        PRES    WAVE   SWELL
                       AIR SEA DIR/SP/G            HT/PER HT/PER/DIR
                 (UTC) (F)     (DEG/KT/KT) (MB)    (FT/S) (FT/S/D)
5E ST. MARYS GA  1630      65                N/A     1/ 4
FRYING PAN BUOY  1650   62 67   20/ 14/ 16 1022.5    4/ 6
BUOY 41025       1650   64 75  110/ 10/ 16 1023.3    5/10   5/ 40/10
CAPE LOOKOUT NC  NOT AVBL
BUOY 41002       1650   65 71   60/ 14/ 17 1021.5    5/ 7   3/ 30/ 7
BUOY 41010       NOT AVBL
ST AUGUSTINE FL  1700   67 68  130/  7/  7 1020.1


$$




USA.gov is the U.S. government's official web portal to all federal, state and local government web resources and services.